KO5MO-3 Weather Reports


time (UTC)temp
F
wind
direction
speed
knots
gust
knots
rain 1hr
in
rain 24hr
in
rain mn
in
humidity
%
barometer
mb
20260507111454 65 338 1.7 1.7 0.00 0.00 0.00 41 1007.5
20260507110954 64 27 1.7 1.7 0.00 0.00 0.00 42 1007.5
20260507110454 64 357 0.0 1.7 0.00 0.00 0.00 43 1007.5
20260507105954 63 65 0.0 0.9 0.00 0.00 0.00 43 1007.5
20260507105454 63 344 0.0 0.0 0.00 0.00 0.00 43 1007.5
20260507104954 64 230 0.0 0.0 0.00 0.00 0.00 42 1007.5
20260507104454 64 24 0.9 0.9 0.00 0.00 0.00 43 1007.5
20260507103954 63 346 0.0 0.9 0.00 0.00 0.00 44 1007.5
20260507103454 63 316 0.0 0.0 0.00 0.00 0.00 45 1007.5
20260507102954 63 94 0.0 0.0 0.00 0.00 0.00 44 1007.5
20260507102454 64 17 0.9 1.7 0.00 0.00 0.00 44 1007.5
20260507101954 64 0 1.7 1.7 0.00 0.00 0.00 43 1007.5
20260507101454 64 1 0.9 1.7 0.00 0.00 0.00 43 1007.5
20260507100954 64 356 1.7 1.7 0.00 0.00 0.00 43 1007.5
20260507100454 63 270 0.0 0.0 0.00 0.00 0.00 44 1007.5
20260507095954 63 270 0.0 0.0 0.00 0.00 0.00 44 1007.5
20260507095454 64 153 0.0 0.9 0.00 0.00 0.00 43 1007.5
20260507094954 62 134 0.0 0.0 0.00 0.00 0.00 44 1007.5
20260507094454 63 248 0.0 0.0 0.00 0.00 0.00 45 1007.5
20260507093954 64 167 0.0 0.0 0.00 0.00 0.00 43 1007.5
20260507093454 65 168 0.0 0.0 0.00 0.00 0.00 41 1007.5
20260507092954 65 317 0.0 0.0 0.00 0.00 0.00 41 1007.5
20260507092454 65 334 0.9 0.9 0.00 0.00 0.00 41 1007.5
20260507091954 65 338 0.0 0.0 0.00 0.00 0.00 41 1007.5
20260507091454 65 311 0.0 0.0 0.00 0.00 0.00 42 1007.5
20260507090954 65 311 0.0 0.0 0.00 0.00 0.00 41 1007.5
20260507090454 65 311 0.0 0.0 0.00 0.00 0.00 41 1007.5
20260507085954 65 124 0.0 0.0 0.00 0.00 0.00 41 1007.5
20260507085454 64 115 0.0 0.0 0.00 0.00 0.00 42 1007.5
20260507084954 64 214 0.0 0.0 0.00 0.00 0.00 42 1007.5
20260507084455 65 185 0.0 0.0 0.00 0.00 0.00 40 1007.5
20260507083954 66 200 0.0 0.0 0.00 0.00 0.00 39 1007.5
20260507083454 66 160 0.0 0.0 0.00 0.00 0.00 39 1007.5
20260507082954 67 270 0.0 0.0 0.00 0.00 0.00 39 1007.5
20260507082454 67 355 0.0 0.9 0.00 0.00 0.00 38 1007.5
20260507081954 67 280 0.0 0.9 0.00 0.00 0.00 39 1007.5
20260507081454 67 341 0.0 0.9 0.00 0.00 0.00 38 1007.5
20260507080954 67 30 0.0 0.9 0.00 0.00 0.00 38 1007.5
20260507080454 67 333 0.0 0.0 0.00 0.00 0.00 38 1007.5
20260507075954 68 357 0.0 0.0 0.00 0.00 0.00 37 1007.5
20260507075454 69 307 0.0 0.9 0.00 0.00 0.00 36 1007.5
20260507074954 70 346 0.9 1.7 0.00 0.00 0.00 35 1007.5
20260507074454 70 332 0.9 1.7 0.00 0.00 0.00 35 1007.5
20260507073954 70 251 0.0 0.0 0.00 0.00 0.00 35 1007.5
20260507073454 71 250 0.0 0.9 0.00 0.00 0.00 34 1007.5
20260507072954 71 261 0.9 1.7 0.00 0.00 0.00 34 1007.5
20260507072454 71 274 0.9 1.7 0.00 0.00 0.00 34 1007.5
20260507071954 71 268 0.9 1.7 0.00 0.00 0.00 35 1007.5
20260507071454 70 240 0.0 0.9 0.00 0.00 0.00 35 1007.5
20260507070954 70 267 0.0 0.0 0.00 0.00 0.00 36 1007.5
20260507070454 69 250 0.0 0.0 0.00 0.00 0.00 37 1007.5
20260507065954 70 243 0.0 0.9 0.00 0.00 0.00 36 1007.5
20260507065454 70 239 0.0 0.0 0.00 0.00 0.00 36 1007.5
20260507064954 70 253 0.0 0.0 0.00 0.00 0.00 36 1007.5
20260507064454 70 230 0.0 0.9 0.00 0.00 0.00 36 1007.5
20260507063954 69 246 0.0 0.0 0.00 0.00 0.00 37 1007.5
20260507063454 69 210 0.0 0.0 0.00 0.00 0.00 36 1007.5
20260507062954 69 212 0.0 0.9 0.00 0.00 0.00 37 1007.5
20260507062454 70 223 0.0 0.0 0.00 0.00 0.00 36 1007.5
20260507061954 71 264 0.0 0.0 0.00 0.00 0.00 36 1007.5
20260507061454 70 285 0.0 0.0 0.00 0.00 0.00 36 1007.5
20260507060954 71 261 0.0 0.0 0.00 0.00 0.00 36 1007.5
20260507060454 72 260 0.0 0.0 0.00 0.00 0.00 35 1007.5
20260507055954 72 261 0.0 0.0 0.00 0.00 0.00 35 1007.5
20260507055454 72 248 0.0 0.9 0.00 0.00 0.00 35 1007.5
20260507054954 73 241 0.0 0.0 0.00 0.00 0.00 35 1007.5
20260507054454 73 246 0.0 0.9 0.00 0.00 0.00 34 1007.5
20260507053954 73 291 0.0 0.9 0.00 0.00 0.00 34 1007.5
20260507053454 74 297 0.9 1.7 0.00 0.00 0.00 34 1007.5
20260507052954 74 298 0.0 0.9 0.00 0.00 0.00 34 1007.5
20260507052454 74 277 0.9 1.7 0.00 0.00 0.00 33 1007.5
20260507051954 74 296 0.9 0.9 0.00 0.00 0.00 33 1007.5
20260507051454 74 283 0.0 0.9 0.00 0.00 0.00 33 1007.5
20260507050954 75 294 1.7 1.7 0.00 0.00 0.00 33 1007.5
20260507050454 75 272 0.9 1.7 0.00 0.00 0.00 33 1007.5
20260507045954 74 291 0.0 0.9 0.00 0.00 0.00 33 1007.5
20260507045454 74 269 0.9 1.7 0.00 0.00 0.00 34 1007.5
20260507044954 72 256 0.9 0.9 0.00 0.00 0.00 35 1007.5
20260507044454 70 206 0.0 0.0 0.00 0.00 0.00 37 1007.5
20260507043954 70 201 0.0 0.0 0.00 0.00 0.00 37 1007.5
20260507043454 70 201 0.0 0.0 0.00 0.00 0.00 37 1007.5
20260507042954 70 200 0.0 0.0 0.00 0.00 0.00 37 1007.5
20260507042454 71 247 0.0 0.0 0.00 0.00 0.00 36 1007.5
20260507041954 72 247 0.0 0.0 0.00 0.00 0.00 36 1007.5
20260507041454 73 247 0.0 0.0 0.00 0.00 0.00 34 1007.5
20260507040954 75 247 0.0 0.0 0.00 0.00 0.00 33 1007.5
20260507040454 74 267 0.0 0.9 0.00 0.00 0.00 34 1007.5
20260507035954 74 199 0.0 0.0 0.00 0.00 0.00 34 1007.5
20260507035454 74 241 0.0 0.0 0.00 0.00 0.00 34 1007.5
20260507034954 73 249 0.0 0.0 0.00 0.00 0.00 34 1007.5
20260507034454 74 187 0.0 0.0 0.00 0.00 0.00 33 1007.5
20260507033954 75 179 0.0 0.0 0.00 0.00 0.00 32 1007.5
20260507033454 76 187 0.0 0.0 0.00 0.00 0.00 32 1007.5
20260507032954 77 212 0.0 0.0 0.00 0.00 0.00 31 1007.5
20260507032454 77 248 0.9 1.7 0.00 0.00 0.00 31 1007.5
20260507031954 78 227 0.0 0.9 0.00 0.00 0.00 31 1007.5
20260507031454 78 239 0.9 0.9 0.00 0.00 0.00 30 1007.5
20260507030954 78 215 1.7 1.7 0.00 0.00 0.00 30 1007.5
20260507030454 79 235 1.7 1.7 0.00 0.00 0.00 30 1007.5
20260507025954 79 239 2.6 3.5 0.00 0.00 0.00 30 1007.5
20260507025454 79 301 0.0 0.9 0.00 0.00 0.00 30 1007.5
20260507024954 79 273 2.6 3.5 0.00 0.00 0.00 30 1007.5
20260507024454 79 260 1.7 1.7 0.00 0.00 0.00 30 1007.5
20260507023954 80 249 2.6 2.6 0.00 0.00 0.00 29 1007.5
20260507023454 80 262 3.5 4.3 0.00 0.00 0.00 29 1007.5
20260507022954 80 313 2.6 3.5 0.00 0.00 0.00 29 1007.5
20260507022454 80 246 2.6 3.5 0.00 0.00 0.00 29 1007.5
20260507021954 80 264 0.0 0.9 0.00 0.00 0.00 29 1007.5
20260507021454 81 221 2.6 2.6 0.00 0.00 0.00 29 1007.5
20260507020954 81 314 4.3 4.3 0.00 0.00 0.00 29 1007.5
20260507020454 81 288 1.7 1.7 0.00 0.00 0.00 29 1007.5
20260507015954 81 244 1.7 1.7 0.00 0.00 0.00 29 1007.5
20260507015454 81 253 2.6 3.5 0.00 0.00 0.00 29 1007.5
20260507014954 82 251 2.6 4.3 0.00 0.00 0.00 29 1007.5
20260507014454 82 248 3.5 4.3 0.00 0.00 0.00 28 1007.5
20260507013954 83 278 4.3 6.1 0.00 0.00 0.00 28 1007.5
20260507013454 83 270 2.6 3.5 0.00 0.00 0.00 28 1007.5
20260507012954 83 269 5.2 7.0 0.00 0.00 0.00 28 1007.5
20260507012454 83 230 3.5 4.3 0.00 0.00 0.00 28 1007.5
20260507011954 83 273 7.8 8.7 0.00 0.00 0.00 28 1007.5
20260507011454 84 219 5.2 6.1 0.00 0.00 0.00 28 1007.5
20260507010954 84 274 4.3 5.2 0.00 0.00 0.00 28 1007.5
20260507010454 85 267 2.6 3.5 0.00 0.00 0.00 28 1007.5
20260507005954 84 258 3.5 5.2 0.00 0.00 0.00 28 1007.5
20260507005454 85 236 1.7 3.5 0.00 0.00 0.00 28 1007.5
20260507004954 85 237 6.1 7.8 0.00 0.00 0.00 27 1007.5
20260507004454 85 67 2.6 2.6 0.00 0.00 0.00 28 1007.5
20260507003954 85 340 4.3 4.3 0.00 0.00 0.00 28 1007.5
20260507003454 85 266 4.3 6.1 0.00 0.00 0.00 27 1007.5
20260507002954 86 230 5.2 6.1 0.00 0.00 0.00 27 1007.5
20260507002454 85 211 1.7 1.7 0.00 0.00 0.00 27 1007.5
20260507001954 86 261 2.6 3.5 0.00 0.00 0.00 27 1007.5
20260507001455 85 226 6.1 7.0 0.00 0.00 0.00 27 1007.5
20260507000954 85 187 2.6 3.5 0.00 0.00 0.00 27 1007.5
20260507000454 86 217 0.9 1.7 0.00 0.00 0.00 27 1007.5
20260506235954 85 20 4.3 5.2 0.00 0.00 0.00 28 1007.5
20260506235454 86 305 2.6 3.5 0.00 0.00 0.00 27 1007.5
20260506234954 87 313 3.5 3.5 0.00 0.00 0.00 28 1007.5
20260506234454 86 311 4.3 4.3 0.00 0.00 0.00 27 1007.5
20260506233954 86 258 4.3 4.3 0.00 0.00 0.00 28 1007.5
20260506233454 87 268 0.9 1.7 0.00 0.00 0.00 27 1007.5
20260506232954 86 117 0.0 0.9 0.00 0.00 0.00 27 1007.5
20260506232454 84 72 2.6 2.6 0.00 0.00 0.00 28 1007.5
20260506231954 85 65 3.5 4.3 0.00 0.00 0.00 27 1007.5
20260506231454 85 10 4.3 6.1 0.00 0.00 0.00 28 1007.5
20260506230954 86 307 5.2 5.2 0.00 0.00 0.00 27 1007.5
20260506230454 85 295 7.0 7.8 0.00 0.00 0.00 27 1007.5
20260506225954 87 284 2.6 4.3 0.00 0.00 0.00 27 1007.5
20260506225454 87 351 0.9 1.7 0.00 0.00 0.00 26 1007.5
20260506224954 86 34 4.3 4.3 0.00 0.00 0.00 27 1007.5
20260506224454 86 57 1.7 2.6 0.00 0.00 0.00 27 1007.5
20260506223954 87 171 1.7 2.6 0.00 0.00 0.00 27 1007.5
20260506223454 86 61 1.7 1.7 0.00 0.00 0.00 28 1007.5
20260506222954 85 287 1.7 1.7 0.00 0.00 0.00 27 1007.5
20260506222454 86 295 4.3 5.2 0.00 0.00 0.00 28 1007.5
20260506221954 85 4 4.3 4.3 0.00 0.00 0.00 28 1007.5
20260506221454 84 261 3.5 4.3 0.00 0.00 0.00 28 1007.5
20260506220954 86 285 5.2 7.0 0.00 0.00 0.00 27 1007.5
20260506220454 86 234 3.5 4.3 0.00 0.00 0.00 27 1007.5
20260506215954 84 254 5.2 7.0 0.00 0.00 0.00 28 1007.5
20260506215454 84 88 2.6 4.3 0.00 0.00 0.00 28 1007.5
20260506214954 85 128 1.7 1.7 0.00 0.00 0.00 28 1007.5
20260506214454 85 123 2.6 3.5 0.00 0.00 0.00 27 1007.5
20260506213954 84 208 3.5 4.3 0.00 0.00 0.00 28 1007.5
20260506213454 85 285 4.3 5.2 0.00 0.00 0.00 27 1007.5
20260506212954 84 217 6.1 7.8 0.00 0.00 0.00 28 1007.5
20260506212454 84 83 3.5 4.3 0.00 0.00 0.00 28 1007.5
20260506211954 84 213 5.2 5.2 0.00 0.00 0.00 27 1007.5
20260506211454 83 198 2.6 3.5 0.00 0.00 0.00 28 1007.5
20260506210954 83 323 4.3 4.3 0.00 0.00 0.00 29 1007.5
20260506210454 84 181 0.9 1.7 0.00 0.00 0.00 28 1007.5
20260506205954 83 172 3.5 5.2 0.00 0.00 0.00 28 1007.5
20260506205454 83 204 0.9 1.7 0.00 0.00 0.00 28 1007.5
20260506204954 84 162 4.3 5.2 0.00 0.00 0.00 28 1007.5
20260506204454 83 300 2.6 3.5 0.00 0.00 0.00 28 1007.5
20260506203954 84 312 4.3 4.3 0.00 0.00 0.00 28 1007.5
20260506203454 83 334 3.5 4.3 0.00 0.00 0.00 29 1007.5
20260506202954 82 315 2.6 3.5 0.00 0.00 0.00 29 1007.5
20260506202454 84 317 1.7 3.5 0.00 0.00 0.00 29 1007.5
20260506201954 83 20 3.5 4.3 0.00 0.00 0.00 28 1007.5
20260506201454 84 293 2.6 4.3 0.00 0.00 0.00 28 1007.5
20260506200954 82 99 1.7 1.7 0.00 0.00 0.00 29 1007.5
20260506200454 82 286 3.5 4.3 0.00 0.00 0.00 29 1007.5
20260506195954 85 353 0.9 1.7 0.00 0.00 0.00 28 1007.5
20260506195454 84 321 2.6 3.5 0.00 0.00 0.00 29 1007.5
20260506194954 82 38 6.1 7.0 0.00 0.00 0.00 30 1007.5
20260506194454 82 249 2.6 3.5 0.00 0.00 0.00 29 1007.5
20260506193954 82 192 4.3 4.3 0.00 0.00 0.00 29 1007.5
20260506193454 81 263 0.9 0.9 0.00 0.00 0.00 29 1007.5
20260506192954 80 148 4.3 5.2 0.00 0.00 0.00 30 1007.5
20260506192454 81 263 5.2 7.8 0.00 0.00 0.00 29 1007.5
20260506191954 81 237 6.1 7.0 0.00 0.00 0.00 29 1007.5
20260506191454 80 214 0.0 0.9 0.00 0.00 0.00 30 1007.5
20260506190954 81 322 4.3 6.1 0.00 0.00 0.00 30 1007.5
20260506190454 81 311 3.5 3.5 0.00 0.00 0.00 30 1007.5
20260506185954 81 164 4.3 5.2 0.00 0.00 0.00 30 1007.5
20260506185454 80 204 3.5 4.3 0.00 0.00 0.00 31 1007.5
20260506184954 80 232 6.1 7.0 0.00 0.00 0.00 31 1007.5
20260506184454 81 153 0.9 0.9 0.00 0.00 0.00 30 1007.5
20260506183954 80 159 3.5 4.3 0.00 0.00 0.00 31 1007.5
20260506183454 79 242 5.2 8.7 0.00 0.00 0.00 31 1007.5
20260506182954 79 17 3.5 5.2 0.00 0.00 0.00 31 1007.5
20260506182454 80 273 4.3 5.2 0.00 0.00 0.00 31 1007.5
20260506181954 79 169 0.9 1.7 0.00 0.00 0.00 32 1007.5
20260506181454 80 270 5.2 5.2 0.00 0.00 0.00 31 1007.5
20260506180954 80 306 0.0 1.7 0.00 0.00 0.00 32 1007.5
20260506180454 78 346 1.7 2.6 0.00 0.00 0.00 34 1007.5
20260506175954 79 292 2.6 2.6 0.00 0.00 0.00 33 1007.5
20260506175454 79 334 4.3 4.3 0.00 0.00 0.00 33 1007.5
20260506174954 78 210 0.9 1.7 0.00 0.00 0.00 33 1007.5
20260506174454 76 326 1.7 1.7 0.00 0.00 0.00 35 1007.5
20260506173954 77 286 3.5 4.3 0.00 0.00 0.00 34 1007.5
20260506173454 79 212 2.6 2.6 0.00 0.00 0.00 33 1007.5
20260506172954 77 305 1.7 1.7 0.00 0.00 0.00 34 1007.5
20260506172454 76 288 2.6 3.5 0.00 0.00 0.00 34 1007.5
20260506171954 79 328 1.7 2.6 0.00 0.00 0.00 33 1007.5
20260506171454 77 246 2.6 3.5 0.00 0.00 0.00 34 1007.5
20260506170954 75 223 3.5 4.3 0.00 0.00 0.00 36 1007.5
20260506170454 76 294 5.2 5.2 0.00 0.00 0.00 34 1007.5
20260506165954 75 275 3.5 4.3 0.00 0.00 0.00 35 1007.5
20260506165454 76 256 1.7 1.7 0.00 0.00 0.00 35 1007.5
20260506164954 76 210 3.5 4.3 0.00 0.00 0.00 35 1007.5
20260506164454 76 259 0.0 0.9 0.00 0.00 0.00 34 1007.5
20260506163954 75 267 3.5 4.3 0.00 0.00 0.00 35 1007.5
20260506163454 74 302 2.6 2.6 0.00 0.00 0.00 36 1007.5
20260506162954 75 306 1.7 2.6 0.00 0.00 0.00 36 1007.5
20260506162454 74 194 3.5 4.3 0.00 0.00 0.00 36 1007.5
20260506161954 75 126 0.9 1.7 0.00 0.00 0.00 36 1007.5
20260506161454 74 121 2.6 4.3 0.00 0.00 0.00 36 1007.5
20260506160954 72 184 1.7 2.6 0.00 0.00 0.00 37 1007.5
20260506160454 73 166 3.5 4.3 0.00 0.00 0.00 37 1007.5
20260506155954 73 322 0.9 1.7 0.00 0.00 0.00 37 1007.5
20260506155454 74 314 2.6 5.2 0.00 0.00 0.00 36 1007.5
20260506154954 73 258 0.9 1.7 0.00 0.00 0.00 38 1007.5
20260506154454 72 315 1.7 2.6 0.00 0.00 0.00 38 1007.5
20260506153954 72 218 3.5 3.5 0.00 0.00 0.00 38 1007.5
20260506153454 73 71 0.0 0.9 0.00 0.00 0.00 38 1007.5
20260506152954 71 204 1.7 3.5 0.00 0.00 0.00 39 1007.5
20260506152454 72 234 3.5 3.5 0.00 0.00 0.00 38 1007.5
20260506151954 73 285 0.9 1.7 0.00 0.00 0.00 37 1007.5
20260506151454 70 202 0.9 1.7 0.00 0.00 0.00 40 1007.5
20260506150954 71 295 1.7 1.7 0.00 0.00 0.00 38 1007.5
20260506150454 70 267 1.7 1.7 0.00 0.00 0.00 39 1007.5
20260506145954 70 264 1.7 2.6 0.00 0.00 0.00 39 1007.5
20260506145454 69 11 1.7 1.7 0.00 0.00 0.00 41 1007.5
20260506144954 69 322 1.7 2.6 0.00 0.00 0.00 41 1007.5
20260506144454 69 334 2.6 4.3 0.00 0.00 0.00 41 1007.5
20260506143954 68 300 3.5 4.3 0.00 0.00 0.00 42 1007.5
20260506143454 68 7 3.5 4.3 0.00 0.00 0.00 42 1007.5
20260506142954 68 328 3.5 4.3 0.00 0.00 0.00 41 1007.5
20260506142454 68 290 0.9 1.7 0.00 0.00 0.00 41 1007.5
20260506141954 68 296 4.3 4.3 0.00 0.00 0.00 41 1007.5
20260506141454 68 287 2.6 3.5 0.00 0.00 0.00 41 1007.5
20260506140954 68 328 0.9 1.7 0.00 0.00 0.00 41 1007.5
20260506140454 68 254 1.7 1.7 0.00 0.00 0.00 42 1007.5
20260506135954 67 295 0.0 0.9 0.00 0.00 0.00 42 1007.5
20260506135454 67 284 1.7 1.7 0.00 0.00 0.00 43 1007.5
20260506134954 67 331 1.7 1.7 0.00 0.00 0.00 43 1007.5
20260506134454 66 298 0.9 1.7 0.00 0.00 0.00 44 1007.5
20260506133954 66 287 0.0 0.9 0.00 0.00 0.00 44 1007.5
20260506133454 67 263 0.0 0.0 0.00 0.00 0.00 43 1007.5
20260506132954 66 307 0.0 0.0 0.00 0.00 0.00 44 1007.5
20260506132454 64 323 0.9 1.7 0.00 0.00 0.00 46 1007.5
20260506131954 63 298 0.0 0.9 0.00 0.00 0.00 47 1007.5
20260506131454 62 282 0.0 0.9 0.00 0.00 0.00 48 1007.5
20260506130954 62 280 0.9 0.9 0.00 0.00 0.00 49 1007.5
20260506130454 61 280 0.9 1.7 0.00 0.00 0.00 50 1007.5
20260506125954 60 311 0.9 1.7 0.00 0.00 0.00 51 1007.5
20260506125454 59 325 0.9 1.7 0.00 0.00 0.00 53 1007.5
20260506124954 58 259 0.0 0.0 0.00 0.00 0.00 53 1007.5
20260506124454 57 247 0.0 0.0 0.00 0.00 0.00 55 1007.5
20260506123954 57 257 0.0 0.0 0.00 0.00 0.00 56 1007.5
20260506123454 57 137 0.0 0.0 0.00 0.00 0.00 55 1007.5
20260506122954 57 185 0.0 0.0 0.00 0.00 0.00 54 1007.5
20260506122454 58 259 0.0 0.0 0.00 0.00 0.00 53 1007.5
20260506121954 59 186 0.0 0.0 0.00 0.00 0.00 51 1007.5
20260506121454 59 58 0.0 0.9 0.00 0.00 0.00 51 1007.5
20260506120954 58 79 0.0 0.9 0.00 0.00 0.00 53 1007.5
20260506120454 59 230 0.0 0.0 0.00 0.00 0.00 52 1007.5
20260506115954 60 228 0.0 0.0 0.00 0.00 0.00 51 1007.5
20260506115454 60 255 0.0 0.0 0.00 0.00 0.00 50 1007.5
20260506114954 60 243 0.0 0.0 0.00 0.00 0.00 50 1007.5
20260506114454 60 268 0.9 1.7 0.00 0.00 0.00 49 1007.5
20260506113954 60 255 0.0 0.9 0.00 0.00 0.00 50 1007.5
20260506113454 61 248 1.7 1.7 0.00 0.00 0.00 50 1007.5
20260506112954 60 249 0.9 0.9 0.00 0.00 0.00 50 1007.5
20260506112454 61 256 0.0 0.0 0.00 0.00 0.00 49 1007.5
20260506111954 61 247 0.9 1.7 0.00 0.00 0.00 49 1007.5